Date,TemperatureHighF,TemperatureAvgF,TemperatureLowF,DewpointHighF,DewpointAvgF,DewpointLowF,HumidityHigh,HumidityAvg,HumidityLow,PressureMaxIn,PressureMinIn,WindSpeedMaxMPH,WindSpeedAvgMPH,GustSpeedMaxMPH,PrecipitationSumIn
2013-1-1,8.0,3.3,0.0,3.0,-0.0,-3.0,89,86,76,0.00,40.00,0,-999,0,0.00
2013-1-2,10.0,3.3,-2.0,5.0,-1.2,-5.0,90,81,63,0.00,40.00,0,-999,0,0.00
2013-1-3,10.0,6.5,2.0,-1.0,-3.2,-5.0,74,64,51,0.00,40.00,0,-999,0,0.00
2013-1-4,20.0,14.7,11.0,5.0,2.4,0.0,69,58,49,0.00,40.00,0,-999,0,0.00
2013-1-5,21.0,12.3,5.0,5.0,2.4,-2.0,76,65,50,0.00,40.00,0,-999,0,0.00
2013-1-6,29.0,23.3,18.0,12.0,4.1,-3.0,54,43,33,0.00,40.00,0,-999,0,0.00
2013-1-7,20.0,16.9,13.0,16.0,9.1,2.0,95,72,48,0.00,40.00,0,-999,0,0.00
2013-1-8,23.0,20.2,17.0,21.0,17.8,15.0,96,90,81,0.00,40.00,0,-999,0,0.00
2013-1-9,33.0,25.9,22.0,25.0,20.9,15.0,97,82,57,0.00,40.00,0,-999,0,0.00
2013-1-10,28.0,22.3,11.0,22.0,17.5,6.0,96,82,58,0.00,40.00,0,-999,0,0.00
2013-1-11,11.0,3.9,-6.0,10.0,0.0,-11.0,95,84,68,0.00,40.00,0,-999,0,0.00
2013-1-12,1.0,-4.4,-8.0,-5.0,-8.8,-12.0,85,81,70,0.00,40.00,0,-999,0,0.00
2013-1-13,0.0,-6.5,-10.0,-7.0,-11.3,-14.0,84,79,70,0.00,40.00,0,-999,0,0.00
2013-1-14,-2.0,-7.6,-13.0,-7.0,-12.0,-17.0,84,80,73,0.00,40.00,0,-999,0,0.00
2013-1-15,4.0,-1.7,-8.0,1.0,-5.6,-12.0,88,83,77,0.00,40.00,0,-999,0,0.00
2013-1-16,10.0,4.7,1.0,6.0,1.6,-2.0,90,87,78,0.00,40.00,0,-999,0,0.00
2013-1-17,32.0,17.5,8.0,17.0,9.2,5.0,90,71,45,0.00,40.00,0,-999,0,0.00
2013-1-18,28.0,20.1,14.0,10.0,7.5,5.0,71,58,42,0.00,40.00,0,-999,0,0.00
2013-1-19,25.0,17.5,12.0,9.0,5.8,3.0,70,60,47,0.00,40.00,0,-999,0,0.00
2013-1-20,24.0,18.1,13.0,9.0,6.6,4.0,72,60,47,0.00,40.00,0,-999,0,0.00
2013-1-21,28.0,21.1,16.0,11.0,8.5,6.0,69,58,45,0.00,40.00,0,-999,0,0.00
2013-1-22,33.0,23.4,17.0,8.0,4.6,-1.0,63,45,30,0.00,40.00,0,-999,0,0.00
2013-1-23,35.0,28.9,24.0,8.0,2.7,-3.0,43,32,25,0.00,40.00,0,-999,0,0.00
2013-1-24,32.0,27.2,24.0,27.0,20.3,6.0,98,78,36,0.00,40.00,0,-999,0,0.00
2013-1-25,30.0,26.8,24.0,25.0,22.6,20.0,91,84,74,0.00,40.00,0,-999,0,0.00
2013-1-26,32.0,28.5,26.0,30.0,27.4,23.0,98,96,83,0.00,40.00,0,-999,0,0.00
2013-1-27,28.0,22.7,14.0,27.0,20.0,9.0,97,89,79,0.00,40.00,0,-999,0,0.00
2013-1-28,17.0,10.2,6.0,10.0,6.0,0.0,95,83,71,0.00,40.00,0,-999,0,0.00
2013-1-29,16.0,9.0,6.0,9.0,5.1,3.0,91,84,68,0.00,40.00,0,-999,0,0.00
2013-1-30,22.0,16.9,8.0,20.0,14.1,6.0,92,89,81,0.00,40.00,0,-999,0,0.00
2013-1-31,27.0,21.8,19.0,20.0,18.7,15.0,97,88,73,0.00,40.00,0,-999,0,0.00
2013-2-1,29.0,22.7,19.0,22.0,19.3,16.0,96,87,72,0.00,40.00,0,-999,0,0.00
2013-2-2,27.0,19.9,16.0,18.0,15.5,12.0,93,83,67,0.00,40.00,0,-999,0,0.00
2013-2-3,27.0,18.5,13.0,18.0,13.7,10.0,96,82,61,0.00,40.00,0,-999,0,0.00
2013-2-4,28.0,20.8,15.0,19.0,15.5,11.0,94,80,65,0.00,40.00,0,-999,0,0.00
2013-2-5,34.0,26.2,21.0,21.0,16.2,10.0,95,68,45,0.00,40.00,0,-999,0,0.00
2013-2-6,28.0,21.9,12.0,17.0,13.8,7.0,81,71,52,0.00,40.00,0,-999,0,0.00
2013-2-7,27.0,17.7,9.0,8.0,4.8,0.0,87,59,35,0.00,40.00,0,-999,0,0.00
2013-2-8,30.0,22.3,17.0,20.0,10.0,2.0,95,60,45,0.00,40.00,0,-999,0,0.00
2013-2-9,28.0,20.3,15.0,16.0,11.4,8.0,89,68,46,0.00,40.00,0,-999,0,0.00
2013-2-10,18.0,13.2,7.0,13.0,0.6,-12.0,93,60,33,0.00,40.00,0,-999,0,0.00
2013-2-11,14.0,5.0,-1.0,0.0,-5.3,-13.0,77,62,42,0.00,40.00,0,-999,0,0.00
2013-2-12,19.0,10.4,2.0,12.0,6.7,-3.0,92,85,74,0.00,40.00,0,-999,0,0.00
2013-2-13,25.0,18.9,14.0,19.0,16.1,12.0,94,89,75,0.00,40.00,0,-999,0,0.00
2013-2-14,24.0,18.3,15.0,18.0,12.4,9.0,96,78,59,0.00,40.00,0,-999,0,0.00
2013-2-15,29.0,20.2,16.0,16.0,12.2,10.0,86,72,48,0.00,40.00,0,-999,0,0.00
2013-2-16,31.0,22.5,17.0,20.0,16.8,14.0,94,79,62,0.00,40.00,0,-999,0,0.00
2013-2-17,26.0,18.1,13.0,20.0,12.3,7.0,93,78,63,0.00,40.00,0,-999,0,0.00
2013-2-18,22.0,13.9,10.0,10.0,7.5,4.0,91,76,54,0.00,40.00,0,-999,0,0.00
2013-2-19,29.0,19.0,11.0,16.0,6.9,0.0,79,59,38,0.00,40.00,0,-999,0,0.00
2013-2-20,31.0,21.2,15.0,18.0,11.9,6.0,95,67,47,0.00,40.00,0,-999,0,0.00
2013-2-21,23.0,15.4,10.0,17.0,9.9,2.0,95,79,60,0.00,40.00,0,-999,0,0.00
2013-2-22,20.0,12.9,9.0,13.0,8.6,5.0,94,83,65,0.00,40.00,0,-999,0,0.00
2013-2-23,24.0,14.8,9.0,19.0,12.0,5.0,93,89,76,0.00,40.00,0,-999,0,0.00
2013-2-24,24.0,12.1,6.0,13.0,5.2,-1.0,83,74,62,0.00,40.00,0,-999,0,0.00
2013-2-25,17.0,10.3,3.0,12.0,5.7,-1.0,94,81,68,0.00,40.00,0,-999,0,0.00
2013-2-26,21.0,11.4,6.0,11.0,5.8,1.0,94,78,61,0.00,40.00,0,-999,0,0.00
2013-2-27,21.0,11.0,4.0,9.0,4.9,1.0,90,77,58,0.00,40.00,0,-999,0,0.00
2013-2-28,22.0,14.8,8.0,17.0,11.4,5.0,94,86,76,0.00,40.00,0,-999,0,0.00
2013-3-1,34.0,24.2,16.0,26.0,21.4,15.0,96,89,73,0.00,40.00,0,-999,0,0.00
2013-3-2,38.0,30.1,24.0,28.0,24.2,18.0,97,80,58,0.00,40.00,0,-999,0,0.00
2013-3-3,32.0,26.1,13.0,27.0,22.8,8.0,98,87,74,0.00,40.00,0,-999,0,0.00
2013-3-4,21.0,11.1,6.0,9.0,3.7,-4.0,93,72,50,0.00,40.00,0,-999,0,0.00
2013-3-5,28.0,16.9,4.0,12.0,3.0,-4.0,77,55,35,0.00,40.00,0,-999,0,0.00
2013-3-6,32.0,25.1,19.0,26.0,16.5,7.0,96,71,50,0.00,40.00,0,-999,0,0.00
2013-3-7,31.0,21.8,13.0,22.0,13.9,6.0,91,73,35,0.00,40.00,0,-999,0,0.00
2013-3-8,34.0,26.5,21.0,27.0,22.2,16.0,93,84,72,0.00,40.00,0,-999,0,0.00
2013-3-9,35.0,24.0,18.0,17.0,12.4,5.0,83,62,30,0.00,40.00,0,-999,0,0.00
2013-3-10,35.0,22.5,14.0,15.0,10.0,6.0,71,59,39,0.00,40.00,0,-999,0,0.00
2013-3-11,28.0,24.0,20.0,23.0,14.3,7.0,92,67,49,0.00,40.00,0,-999,0,0.00
2013-3-12,34.0,24.8,16.0,25.0,14.7,3.0,85,65,56,0.00,40.00,0,-999,0,0.00
2013-3-13,44.0,34.7,28.0,28.0,25.2,22.0,88,69,48,0.00,40.00,0,-999,0,0.00
2013-3-14,48.0,38.1,31.0,25.0,22.0,15.0,72,54,34,0.00,40.00,0,-999,0,0.00
2013-3-15,43.0,39.1,33.0,24.0,20.0,15.0,65,47,37,0.00,40.00,0,-999,0,0.00
2013-3-16,37.0,31.6,28.0,23.0,18.9,14.0,77,59,44,0.00,40.00,0,-999,0,0.00
2013-3-17,29.0,18.0,12.0,25.0,11.9,3.0,97,77,58,0.00,40.00,0,-999,0,0.00
2013-3-18,20.0,15.3,10.0,17.0,9.3,3.0,92,77,60,0.00,40.00,0,-999,0,0.00
2013-3-19,29.0,19.0,10.0,9.0,0.5,-10.0,79,48,19,0.00,40.00,0,-999,0,0.00
2013-3-20,29.0,25.0,19.0,28.0,15.1,-8.0,98,72,23,0.00,40.00,0,-999,0,0.00
2013-3-21,28.0,20.4,11.0,28.0,17.9,8.0,98,90,71,0.00,40.00,0,-999,0,0.00
2013-3-22,20.0,11.7,5.0,12.0,7.2,0.0,93,82,62,0.00,40.00,0,-999,0,0.00
2013-3-23,21.0,8.1,1.0,8.0,0.6,-3.0,82,71,54,0.00,40.00,0,-999,0,0.00
2013-3-24,22.0,8.3,0.0,8.0,0.3,-6.0,88,71,38,0.00,40.00,0,-999,0,0.00
2013-3-25,26.0,12.5,1.0,8.0,1.2,-5.0,75,61,40,0.00,40.00,0,-999,0,0.00
2013-3-26,31.0,22.9,15.0,27.0,17.6,6.0,95,80,60,0.00,40.00,0,-999,0,0.00
2013-3-27,37.0,28.5,24.0,28.0,23.6,19.0,96,82,59,0.00,40.00,0,-999,0,0.00
2013-3-28,44.0,33.4,25.0,27.0,22.9,19.0,84,67,46,0.00,40.00,0,-999,0,0.00
2013-3-29,43.0,33.7,30.0,31.0,27.4,24.0,97,79,51,0.00,40.00,0,-999,0,0.00
2013-3-30,43.0,34.1,28.0,31.0,22.8,-99.9,94,68,39,0.00,40.00,0,-999,0,0.00
2013-3-31,47.0,34.6,26.0,24.0,19.3,15.0,74,55,33,0.00,40.00,0,-999,0,0.00
2013-4-1,49.0,37.3,28.0,23.0,20.2,18.0,67,51,32,0.00,40.00,0,-999,0,0.00
2013-4-2,52.0,38.5,28.0,24.0,19.1,10.0,72,48,25,0.00,40.00,0,-999,0,0.00
2013-4-3,47.0,38.5,33.0,29.0,23.2,13.0,76,55,35,0.00,40.00,0,-999,0,0.00
2013-4-4,51.0,40.7,35.0,29.0,26.8,24.0,75,59,37,0.00,40.00,0,-999,0,0.00
2013-4-5,40.0,33.1,27.0,32.0,28.6,23.0,97,85,61,0.00,40.00,0,-999,0,0.00
2013-4-6,36.0,30.1,26.0,30.0,25.2,20.0,97,82,74,0.00,40.00,0,-999,0,0.00
2013-4-7,37.0,29.1,25.0,29.0,24.9,21.0,96,84,66,0.00,40.00,0,-999,0,0.00
2013-4-8,30.0,24.9,17.0,26.0,21.6,9.0,97,87,70,0.00,40.00,0,-999,0,0.00
2013-4-9,29.0,19.1,13.0,11.0,7.2,2.0,82,60,44,0.00,40.00,0,-999,0,0.00
2013-4-10,37.0,24.1,12.0,26.0,14.3,7.0,90,67,37,0.00,40.00,0,-999,0,0.00
2013-4-11,42.0,32.0,27.0,29.0,23.6,19.0,98,73,43,0.00,40.00,0,-999,0,0.00
2013-4-12,41.0,30.1,20.0,26.0,16.6,5.0,94,62,23,0.00,40.00,0,-999,0,0.00
2013-4-13,32.0,26.4,15.0,29.0,21.7,11.0,98,84,53,0.00,40.00,0,-999,0,0.00
2013-4-14,26.0,17.2,12.0,13.0,8.9,6.0,92,71,43,0.00,40.00,0,-999,0,0.00
2013-4-15,26.0,18.3,14.0,20.0,14.5,8.0,92,85,58,0.00,40.00,0,-999,0,0.00
2013-4-16,24.0,16.4,12.0,14.0,9.2,3.0,87,73,58,0.00,40.00,0,-999,0,0.00
2013-4-17,30.0,16.4,9.0,12.0,5.5,0.0,77,63,39,0.00,40.00,0,-999,0,0.00
2013-4-18,34.0,18.1,5.0,13.0,5.0,-2.0,72,57,34,0.00,40.00,0,-999,0,0.00
2013-4-19,23.0,21.5,20.0,15.0,12.9,10.0,78,69,61,0.00,40.00,0,-999,0,0.00
2013-4-20,40.0,31.5,27.0,31.0,27.9,24.0,97,87,66,0.00,40.00,0,-999,0,0.00
2013-4-21,42.0,29.9,23.0,27.0,23.3,20.0,95,77,48,0.00,40.00,0,-999,0,0.00
2013-4-22,31.0,23.1,13.0,23.0,18.8,7.0,96,84,67,0.00,40.00,0,-999,0,0.00
2013-4-23,33.0,18.0,4.0,15.0,6.9,0.0,85,64,31,0.00,40.00,0,-999,0,0.00
2013-4-24,39.0,26.9,15.0,17.0,10.6,5.0,78,52,27,0.00,40.00,0,-999,0,0.00
2013-4-25,49.0,34.8,26.0,16.0,11.3,5.0,54,39,22,0.00,40.00,0,-999,0,0.00
2013-4-26,51.0,38.3,28.0,21.0,16.0,13.0,56,41,25,0.00,40.00,0,-999,0,0.00
2013-4-27,54.0,42.8,33.0,24.0,21.1,17.0,64,43,24,0.00,40.00,0,-999,0,0.00
2013-4-28,48.0,41.8,37.0,30.0,21.2,16.0,74,44,32,0.00,40.00,0,-999,0,0.00
2013-4-29,41.0,36.4,31.0,27.0,20.9,14.0,64,53,42,0.00,40.00,0,-999,0,0.00
2013-4-30,35.0,27.7,21.0,20.0,15.3,9.0,92,61,37,0.00,40.00,0,-999,0,0.00
2013-5-1,38.0,23.1,18.0,23.0,16.9,4.0,95,78,46,0.00,40.00,0,-999,0,0.00
2013-5-2,44.0,24.2,15.0,19.0,11.6,6.0,76,60,33,0.00,40.00,0,-999,0,0.00
2013-5-3,51.0,37.3,29.0,21.0,16.1,11.0,55,43,25,0.00,40.00,0,-999,0,0.00
2013-5-4,41.0,34.6,31.0,31.0,27.3,20.0,95,76,50,0.00,40.00,0,-999,0,0.00
2013-5-5,53.0,38.3,32.0,32.0,28.4,26.0,92,70,38,0.00,40.00,0,-999,0,0.00
2013-5-6,55.0,41.4,33.0,35.0,29.2,18.0,94,65,25,0.00,40.00,0,-999,0,0.00
2013-5-7,57.0,42.6,35.0,33.0,28.7,22.0,75,60,27,0.00,40.00,0,-999,0,0.00
2013-5-8,54.0,44.5,37.0,32.0,27.9,23.0,77,53,33,0.00,40.00,0,-999,0,0.00
2013-5-9,57.0,44.9,36.0,33.0,27.2,22.0,65,51,26,0.00,40.00,0,-999,0,0.00
2013-5-10,58.0,45.4,37.0,34.0,25.2,16.0,68,48,22,0.00,40.00,0,-999,0,0.00
2013-5-11,57.0,46.9,37.0,32.0,27.0,22.0,66,47,26,0.00,40.00,0,-999,0,0.00
2013-5-12,63.0,51.5,43.0,36.0,30.1,28.0,60,46,27,0.00,40.00,0,-999,0,0.00
2013-5-13,67.0,55.0,45.0,34.0,30.2,27.0,57,40,24,0.00,40.00,0,-999,0,0.00
2013-5-14,64.0,54.8,48.0,31.0,24.7,19.0,43,31,21,0.00,40.00,0,-999,0,0.00
2013-5-15,63.0,51.6,43.0,35.0,28.3,22.0,66,41,26,0.00,40.00,0,-999,0,0.00
2013-5-16,52.0,43.0,38.0,40.0,28.3,-99.9,95,78,55,0.00,40.00,0,-999,0,0.00
2013-5-17,43.0,38.3,36.0,40.0,33.3,-99.9,96,92,79,0.00,40.00,0,-999,0,0.00
2013-5-18,38.0,35.5,33.0,37.0,33.7,31.0,98,93,85,0.00,40.00,0,-999,0,0.00
2013-5-19,40.0,35.3,32.0,36.0,32.7,31.0,98,90,78,0.00,40.00,0,-999,0,0.00
2013-5-21,54.0,48.6,43.0,37.0,31.6,28.0,74,52,43,0.00,40.00,0,-999,0,0.00
2013-5-22,61.0,47.4,39.0,36.0,32.4,29.0,74,57,36,0.00,40.00,0,-999,0,0.00
2013-5-23,56.0,42.2,33.0,35.0,28.5,19.0,86,62,29,0.00,40.00,0,-999,0,0.00
2013-5-24,52.0,40.5,29.0,26.0,16.9,9.0,81,42,20,0.00,40.00,0,-999,0,0.00
2013-5-25,61.0,48.1,39.0,31.0,18.2,4.0,53,31,19,0.00,40.00,0,-999,0,0.00
2013-5-26,48.0,42.8,39.0,33.0,28.0,25.0,63,56,50,0.00,40.00,0,-999,0,0.00
2013-10-11,34.0,31.0,28.0,23.0,21.3,20.0,79,67,62,0.00,40.00,0,-999,0,0.00
2013-10-12,34.0,29.4,26.0,31.0,23.6,18.0,96,79,63,0.00,40.00,0,-999,0,0.00
2013-10-13,36.0,32.3,30.0,33.0,30.5,28.0,98,93,85,0.00,40.00,0,-999,0,0.00
2013-10-14,31.0,28.2,25.0,31.0,26.0,18.0,98,92,78,0.00,40.00,0,-999,0,0.00
2013-10-15,32.0,25.2,19.0,26.0,18.9,14.0,84,77,68,0.00,40.00,0,-999,0,0.00
2013-10-16,35.0,27.4,20.0,26.0,20.9,18.0,93,77,61,0.00,40.00,0,-999,0,0.00
2013-10-17,34.0,28.1,26.0,24.0,21.2,18.0,84,75,59,0.00,40.00,0,-999,0,0.00
2013-10-18,36.0,26.5,19.0,20.0,17.0,12.0,85,68,41,0.00,40.00,0,-999,0,0.00
2013-10-19,44.0,33.8,26.0,24.0,20.6,17.0,77,59,44,0.00,40.00,0,-999,0,0.00
2013-10-20,40.0,34.8,30.0,24.0,20.6,19.0,66,56,48,0.00,40.00,0,-999,0,0.00
2013-10-21,47.0,36.2,28.0,26.0,22.9,20.0,73,59,40,0.00,40.00,0,-999,0,0.00
2013-10-22,49.0,39.6,31.0,29.0,24.7,18.0,71,56,39,0.00,40.00,0,-999,0,0.00
2013-10-23,47.0,39.7,34.0,28.0,24.9,20.0,67,56,44,0.00,40.00,0,-999,0,0.00
2013-10-24,46.0,40.4,34.0,26.0,20.0,14.0,57,45,28,0.00,40.00,0,-999,0,0.00
2013-10-25,50.0,41.6,36.0,27.0,19.9,12.0,53,42,29,0.00,40.00,0,-999,0,0.00
2013-10-26,50.0,43.7,34.0,26.0,21.2,16.0,57,41,31,0.00,40.00,0,-999,0,0.00
2013-10-27,50.0,41.2,33.0,23.0,17.1,11.0,59,39,24,0.00,40.00,0,-999,0,0.00
2013-10-28,40.0,31.5,26.0,31.0,25.9,13.0,98,84,32,0.00,40.00,0,-999,0,0.00
2013-10-29,30.0,25.8,23.0,28.0,24.7,22.0,98,96,92,0.00,40.00,0,-999,0,0.00
2013-10-30,28.0,25.5,23.0,26.0,24.4,22.0,97,96,90,0.00,40.00,0,-999,0,0.00
2013-10-31,30.0,26.6,24.0,27.0,25.2,23.0,98,94,87,0.00,40.00,0,-999,0,0.00
2013-11-1,34.0,27.9,24.0,26.0,23.2,21.0,96,83,63,0.00,40.00,0,-999,0,0.00
2013-11-2,38.0,35.1,34.0,24.0,22.6,21.0,67,60,50,0.00,40.00,0,-999,0,0.00
2013-11-3,35.0,21.4,15.0,27.0,16.5,9.0,96,82,63,0.00,40.00,0,-999,0,0.00
2013-11-4,18.0,13.1,8.0,14.0,10.1,5.0,94,87,76,0.00,40.00,0,-999,0,0.00
2013-11-5,19.0,13.2,7.0,15.0,10.0,4.0,94,87,69,0.00,40.00,0,-999,0,0.00
2013-11-6,26.0,21.7,16.0,24.0,20.3,15.0,96,93,87,0.00,40.00,0,-999,0,0.00
2013-11-7,31.0,28.0,25.0,30.0,26.8,23.0,98,95,90,0.00,40.00,0,-999,0,0.00
2013-11-8,33.0,29.0,26.0,29.0,19.2,7.0,94,68,37,0.00,40.00,0,-999,0,0.00
2013-11-9,40.0,30.6,24.0,25.0,20.1,14.0,74,65,46,0.00,40.00,0,-999,0,0.00
2013-11-10,42.0,36.1,30.0,24.0,22.5,20.0,78,59,45,0.00,40.00,0,-999,0,0.00
2013-11-11,45.0,37.5,32.0,25.0,21.2,18.0,61,52,43,0.00,40.00,0,-999,0,0.00
2013-11-12,44.0,39.3,31.0,21.0,19.1,17.0,58,44,34,0.00,40.00,0,-999,0,0.00
2013-11-13,42.0,35.9,28.0,31.0,23.6,16.0,98,65,34,0.00,40.00,0,-999,0,0.00
2013-11-14,34.0,28.3,24.0,27.0,22.7,11.0,94,80,48,0.00,40.00,0,-999,0,0.00
2013-11-15,26.0,22.7,19.0,19.0,15.5,11.0,82,73,66,0.00,40.00,0,-999,0,0.00
2013-11-16,22.0,18.8,14.0,20.0,17.1,12.0,96,93,90,0.00,40.00,0,-999,0,0.00
2013-11-17,22.0,17.4,13.0,19.0,14.0,9.0,92,87,79,0.00,40.00,0,-999,0,0.00
2013-11-18,35.0,27.3,21.0,23.0,19.9,17.0,90,74,56,0.00,40.00,0,-999,0,0.00
2013-11-19,32.0,28.6,27.0,28.0,26.0,18.0,98,91,57,0.00,40.00,0,-999,0,0.00
2013-11-20,31.0,26.5,20.0,29.0,25.2,16.0,98,95,81,0.00,40.00,0,-999,0,0.00
2013-11-21,21.0,15.3,9.0,17.0,-0.7,-14.0,90,52,26,0.00,40.00,0,-999,0,0.00
2013-11-22,25.0,14.4,5.0,9.0,-0.6,-9.0,66,51,31,0.00,40.00,0,-999,0,0.00
2013-11-23,32.0,24.6,16.0,9.0,2.4,-5.0,56,39,25,0.00,40.00,0,-999,0,0.00
2013-11-24,32.0,24.0,15.0,13.0,4.3,-5.0,60,43,26,0.00,40.00,0,-999,0,0.00
2013-11-25,32.0,26.5,23.0,17.0,13.7,10.0,71,58,48,0.00,40.00,0,-999,0,0.00
2013-11-26,35.0,26.4,20.0,19.0,16.0,14.0,79,65,50,0.00,40.00,0,-999,0,0.00
2013-11-27,38.0,30.9,26.0,17.0,15.0,13.0,64,52,38,0.00,40.00,0,-999,0,0.00
2013-11-28,39.0,31.1,25.0,18.0,15.2,12.0,67,52,39,0.00,40.00,0,-999,0,0.00
2013-11-29,34.0,27.8,23.0,20.0,16.8,13.0,75,63,52,0.00,40.00,0,-999,0,0.00
2013-11-30,30.0,27.1,26.0,25.0,21.6,19.0,97,80,67,0.00,40.00,0,-999,0,0.00
2013-12-1,29.0,26.5,25.0,29.0,25.2,24.0,98,95,88,0.00,40.00,0,-999,0,0.00
2013-12-2,30.0,28.3,25.0,28.0,25.3,20.0,95,88,78,0.00,40.00,0,-999,0,0.00
2013-12-3,22.0,8.6,2.0,20.0,4.9,-3.0,93,85,75,0.00,40.00,0,-999,0,0.00
2013-12-4,2.0,-4.2,-9.0,-6.0,-10.3,-13.0,81,74,65,0.00,40.00,0,-999,0,0.00
2013-12-5,-3.0,-8.1,-12.0,-8.0,-12.9,-16.0,83,79,73,0.00,40.00,0,-999,0,0.00
2013-12-6,-2.0,-6.5,-11.0,-7.0,-11.3,-16.0,84,79,72,0.00,40.00,0,-999,0,0.00
2013-12-7,7.0,1.4,-5.0,2.0,-3.0,-9.0,86,81,74,0.00,40.00,0,-999,0,0.00
2013-12-8,0.0,-3.8,-11.0,-3.0,-10.1,-17.0,86,74,65,0.00,40.00,0,-999,0,0.00
2013-12-9,0.0,-6.9,-15.0,-3.0,-11.1,-20.0,87,81,74,0.00,40.00,0,-999,0,0.00
2013-12-10,9.0,3.8,-1.0,5.0,0.3,-4.0,90,85,75,0.00,40.00,0,-999,0,0.00
2013-12-11,14.0,6.7,0.0,10.0,3.4,-3.0,90,86,77,0.00,40.00,0,-999,0,0.00
2013-12-12,27.0,18.6,11.0,14.0,11.1,8.0,88,73,54,0.00,40.00,0,-999,0,0.00
2013-12-13,19.0,16.1,12.0,14.0,11.3,7.0,90,81,69,0.00,40.00,0,-999,0,0.00
2013-12-14,23.0,17.6,11.0,18.0,15.0,9.0,95,89,75,0.00,40.00,0,-999,0,0.00
2013-12-15,28.0,20.7,18.0,19.0,17.5,15.0,96,88,61,0.00,40.00,0,-999,0,0.00
2013-12-17,36.0,30.9,29.0,14.0,11.8,9.0,53,45,33,0.00,40.00,0,-999,0,0.00
2013-12-18,37.0,32.8,28.0,14.0,12.3,10.0,55,42,33,0.00,40.00,0,-999,0,0.00
2013-12-19,29.0,21.2,9.0,24.0,17.1,4.0,96,85,51,0.00,40.00,0,-999,0,0.00
2013-12-20,15.0,9.4,6.0,8.0,4.5,1.0,91,80,70,0.00,40.00,0,-999,0,0.00
2013-12-21,18.0,12.2,8.0,15.0,10.0,6.0,94,90,87,0.00,40.00,0,-999,0,0.00
2013-12-22,19.0,13.7,11.0,13.0,10.5,9.0,92,87,77,0.00,40.00,0,-999,0,0.00
2013-12-23,29.0,25.6,22.0,26.0,23.9,21.0,97,93,87,0.00,40.00,0,-999,0,0.00
2013-12-24,26.0,17.8,10.0,25.0,14.0,6.0,97,85,68,0.00,40.00,0,-999,0,0.00
2013-12-25,17.0,11.8,7.0,10.0,7.1,4.0,92,81,70,0.00,40.00,0,-999,0,0.00
2013-12-26,26.0,18.6,12.0,16.0,10.0,6.0,79,69,56,0.00,40.00,0,-999,0,0.00
2013-12-27,31.0,23.3,18.0,15.0,12.2,9.0,74,63,42,0.00,40.00,0,-999,0,0.00
2013-12-28,31.0,22.5,12.0,17.0,11.3,4.0,90,64,40,0.00,40.00,0,-999,0,0.00
2013-12-29,17.0,12.9,7.0,12.0,6.7,2.0,91,76,64,0.00,40.00,0,-999,0,0.00
2013-12-30,24.0,17.9,14.0,19.0,13.2,11.0,94,82,66,0.00,40.00,0,-999,0,0.00
2013-12-31,28.0,22.3,20.0,24.0,20.3,17.0,96,92,78,0.00,40.00,0,-999,0,0.00
2014-1-1,25.0,17.8,11.0,19.0,13.5,9.0,94,83,67,0.00,40.00,0,-999,0,0.00
2014-1-2,25.0,16.7,11.0,20.0,13.9,9.0,95,89,74,0.00,40.00,0,-999,0,0.00